Weather History for Boothville, LA

Change the Weather History Date:

Monday, December 3, 2012

  Actual Average Record
Temperature  
Mean Temperature 70 °F -  
Max Temperature 78 °F - - ()
Min Temperature 63 °F - - ()
Cooling Degree Days 6    
Growing Degree Days 20 (Base 50)    
Moisture  
Dew Point 64 °F    
Average Humidity 85    
Maximum Humidity 100    
Minimum Humidity 61    
Precipitation  
Precipitation 0.00 in - - ()
Sea Level Pressure  
Sea Level Pressure 30.19 in    
Wind  
Wind Speed 7 mph (ESE)    
Max Wind Speed 14 mph    
Max Gust Speed 18 mph    
Visibility 10 miles    
Events      
T = Trace of Precipitation, MM = Missing Value Source: NWS Daily Summary

Daily Weather History Graph

Daily Weather History Graph

Search for Another Location

Airport:

Trip Planner

Search our weather history database for the weather conditions in past years. The results will help you decide how hot, cold, wet, or windy it might be!

Date:

Astronomy

Dec. 03, 2012 Rise Set
Actual Time 6:36 AM CST 4:58 PM CST
Civil Twilight 6:10 AM CST 5:24 PM CST
Nautical Twilight 5:41 AM CST 5:54 PM CST
Astronomical Twilight 5:12 AM CST 6:23 PM CST
Moon 9:33 PM CST (12/3) 10:10 AM CST (12/3)
Length of Visible Light 11h 14m
Length of Day
10h 22m
Waning Gibbous, 78% of the Moon is Illuminated
Dec 3
Waning Gibbous
Dec 6
Last Quarter
Dec 13
New
Dec 19
First Quarter
Dec 28
Full

Hourly Weather History & Observations

Time (CST) Temp. Dew Point Humidity Pressure Visibility Wind Dir Wind Speed Gust Speed Precip Events Conditions
12:51 AM 64.0 °F 62.1 °F 93% 30.20 in 10.0 mi ESE 5.8 mph - N/A   Clear
1:51 AM 64.0 °F 62.1 °F 93% 30.19 in 10.0 mi ESE 4.6 mph - N/A   Clear
2:51 AM 64.0 °F 62.1 °F 93% 30.19 in 10.0 mi ESE 4.6 mph - N/A   Clear
3:51 AM 64.0 °F 62.1 °F 93% 30.19 in 10.0 mi ESE 4.6 mph - N/A   Clear
4:51 AM 64.0 °F 62.1 °F 93% 30.19 in 10.0 mi East 4.6 mph - N/A   Clear
5:51 AM 63.0 °F 62.1 °F 97% 30.21 in 10.0 mi ESE 4.6 mph - N/A   Clear
6:51 AM 63.0 °F 62.1 °F 97% 30.23 in 10.0 mi East 4.6 mph - N/A   Clear
7:51 AM 66.9 °F 64.9 °F 93% 30.24 in 10.0 mi ESE 5.8 mph - N/A   Clear
8:51 AM 71.1 °F 66.0 °F 84% 30.24 in 10.0 mi ESE 6.9 mph - N/A   Clear
9:51 AM 73.9 °F 66.0 °F 76% 30.25 in 10.0 mi ESE 5.8 mph - N/A   Clear
10:51 AM 75.9 °F 64.9 °F 69% 30.23 in 10.0 mi ESE 10.4 mph - N/A   Clear
11:51 AM 75.9 °F 64.9 °F 69% 30.21 in 10.0 mi SE 10.4 mph - N/A   Partly Cloudy
12:51 PM 77.0 °F 64.9 °F 66% 30.18 in 10.0 mi SSE 11.5 mph 18.4 mph N/A   Scattered Clouds
1:08 PM 78.8 °F 64.4 °F 61% 30.17 in 10.0 mi SE 11.5 mph - N/A   Mostly Cloudy
1:22 PM 77.0 °F 64.4 °F 65% 30.16 in 10.0 mi SSE 13.8 mph - N/A   Scattered Clouds
1:51 PM 75.0 °F 64.9 °F 71% 30.16 in 10.0 mi SSE 13.8 mph - N/A   Scattered Clouds
2:51 PM 75.0 °F 64.0 °F 69% 30.15 in 10.0 mi SE 11.5 mph 18.4 mph N/A   Clear
3:51 PM 73.9 °F 64.9 °F 73% 30.16 in 10.0 mi SE 11.5 mph - N/A   Partly Cloudy
4:51 PM 70.0 °F 64.9 °F 84% 30.17 in 10.0 mi ESE 4.6 mph - N/A   Clear
5:51 PM 66.9 °F 64.9 °F 93% 30.19 in 10.0 mi East 3.5 mph - N/A   Clear
6:51 PM 66.0 °F 64.9 °F 96% 30.19 in 10.0 mi East 4.6 mph - N/A   Clear
7:51 PM 66.9 °F 64.9 °F 93% 30.19 in 10.0 mi SE 5.8 mph - N/A   Clear
8:51 PM 66.9 °F 64.9 °F 93% 30.19 in 10.0 mi ESE 5.8 mph - N/A   Clear
9:51 PM 66.0 °F 64.9 °F 96% 30.19 in 10.0 mi ESE 4.6 mph - N/A   Clear
10:51 PM 66.0 °F 64.9 °F 96% 30.19 in 10.0 mi ESE 4.6 mph - N/A   Clear
11:51 PM 66.0 °F 66.0 °F 100% 30.18 in 10.0 mi ESE 6.9 mph - N/A   Partly Cloudy